Mullan Pass, ID

10:29 PM PST on January 19, 2018 (GMT -0800)
Mullan Pass

Weather History for KMLP - October, 2012

Change the Weather History Date:

Thursday, October 25, 2012

  Actual Average (K3TH) Record (K3TH)
Temperature  
Mean Temperature 26 °F -  
Max Temperature 28 °F 50 °F 62 °F (1999)
Min Temperature 24 °F 33 °F 19 °F (2002)
Degree Days  
Heating Degree Days 39    
Moisture  
Dew Point 24 °F    
Average Humidity 87    
Maximum Humidity 93    
Minimum Humidity 80    
Precipitation  
Precipitation 0.13 in - - ()
Sea Level Pressure  
Sea Level Pressure 30.20 in    
Wind  
Wind Speed 2 mph (NW)    
Max Wind Speed 7 mph    
Max Gust Speed -    
Visibility 2 miles    
Events Fog , Rain , Snow    
Averages and records for this station are not official NWS values.
T = Trace of Precipitation, MM = Missing Value Source: NWS Daily Summary

Daily Weather History Graph

Daily Weather History Graph

Search for Another Location

Airport or City:

Trip Planner

Search our weather history database for the weather conditions in past years. The results will help you decide how hot, cold, wet, or windy it might be!

Date:

Astronomy

Oct. 25, 2012 Rise Set
Actual Time 7:16 AM PDT 5:35 PM PDT
Civil Twilight 6:45 AM PDT 6:07 PM PDT
Nautical Twilight 6:09 AM PDT 6:43 PM PDT
Astronomical Twilight 5:33 AM PDT 7:18 PM PDT
Moon 3:36 PM PDT (10/25) 3:03 AM PDT (10/25)
Length of Visible Light 11h 22m
Length of Day
10h 19m
Waxing Gibbous, 85% of the Moon is Illuminated
Oct 25
Waxing Gibbous
Oct 29
Full
Nov 6
Last Quarter
Nov 13
New
Nov 20
First Quarter

Hourly Weather History & Observations

Time (PDT) Temp. Windchill Dew Point Humidity Pressure Visibility Wind Dir Wind Speed Gust Speed Precip Events Conditions
12:13 AM 26.6 °F - 24.8 °F 93% 30.01 in 1.0 mi Calm Calm - 0.01 in Snow Light Snow
12:23 AM 26.6 °F - 24.8 °F 93% 30.01 in 0.5 mi Calm Calm - 0.01 in Fog , Snow Light Snow
12:27 AM 26.6 °F - 24.8 °F 93% 30.01 in 0.2 mi Calm Calm - 0.01 in Fog , Snow Light Snow
12:53 AM 27.0 °F 21.6 °F 25.0 °F 92% 30.10 in 0.2 mi Variable 4.6 mph - 0.02 in Fog , Snow Light Snow
1:29 AM 28.4 °F - 24.8 °F 86% 30.03 in 0.8 mi Calm Calm - 0.00 in   Mist
1:40 AM 28.4 °F - 24.8 °F 86% 30.03 in 1.2 mi Calm Calm - 0.00 in   Overcast
1:42 AM 28.4 °F - 24.8 °F 86% 30.03 in 2.0 mi Calm Calm - 0.00 in   Overcast
1:50 AM 28.4 °F - 24.8 °F 86% 30.03 in 1.2 mi Calm Calm - 0.00 in Snow Light Snow
1:53 AM 28.0 °F - 25.0 °F 88% 30.11 in 0.8 mi Calm Calm - 0.00 in Snow Light Snow
2:03 AM 28.4 °F - 24.8 °F 86% 30.03 in 1.5 mi Calm Calm - 0.00 in   Overcast
2:13 AM 28.4 °F 24.6 °F 24.8 °F 86% 30.04 in 1.0 mi Variable 3.5 mph - 0.00 in Snow Light Snow
2:25 AM 28.4 °F 24.6 °F 24.8 °F 86% 30.04 in 0.8 mi Variable 3.5 mph - 0.00 in Snow Light Snow
2:53 AM 28.0 °F 24.2 °F 25.0 °F 88% 30.12 in 0.5 mi Variable 3.5 mph - 0.00 in Fog Light Freezing Fog
3:15 AM 28.4 °F - 24.8 °F 86% 30.04 in 0.2 mi Calm Calm - N/A Fog Light Freezing Fog
3:42 AM 28.4 °F - 24.8 °F 86% 30.04 in 0.5 mi Calm Calm - N/A Fog Light Freezing Fog
3:53 AM 28.0 °F - 25.0 °F 88% 30.13 in 0.2 mi Calm Calm - N/A Fog Light Freezing Fog
4:46 AM 28.4 °F 23.3 °F 24.8 °F 86% 30.06 in 0.2 mi Variable 4.6 mph - 0.00 in Fog , Rain Light Freezing Rain
4:53 AM 28.0 °F 22.8 °F 24.1 °F 85% 30.16 in 0.2 mi Variable 4.6 mph - 0.00 in Fog , Rain Light Freezing Rain
5:08 AM 28.4 °F 23.3 °F 24.8 °F 86% 30.06 in 0.5 mi NNW 4.6 mph - 0.00 in Fog Light Freezing Fog
5:53 AM 27.0 °F 21.6 °F 24.1 °F 89% 30.18 in 0.5 mi NNW 4.6 mph - 0.00 in Fog Light Freezing Fog
6:10 AM 26.6 °F 19.1 °F 23.0 °F 86% 30.08 in 1.5 mi NNW 6.9 mph - N/A   Overcast
6:17 AM 26.6 °F 20.0 °F 23.0 °F 86% 30.08 in 3.0 mi NNW 5.8 mph - N/A   Overcast
6:53 AM 26.1 °F 20.5 °F 23.0 °F 88% 30.21 in 10.0 mi NW 4.6 mph - N/A   Overcast
7:30 AM 26.6 °F 22.6 °F 23.0 °F 86% 30.11 in 2.0 mi NW 3.5 mph - N/A   Overcast
7:40 AM 26.6 °F 22.6 °F 23.0 °F 86% 30.11 in 4.0 mi NNW 3.5 mph - 0.00 in Snow Light Snow
7:48 AM 26.6 °F 22.6 °F 23.0 °F 86% 30.11 in 1.8 mi Variable 3.5 mph - 0.00 in Snow Light Snow
7:53 AM 27.0 °F - 23.0 °F 85% 30.22 in 1.0 mi Calm Calm - 0.00 in Snow Light Snow
8:09 AM 26.6 °F 22.6 °F 23.0 °F 86% 30.12 in 2.0 mi Variable 3.5 mph - 0.00 in   Overcast
8:18 AM 26.6 °F 21.2 °F 23.0 °F 86% 30.12 in 6.0 mi NNW 4.6 mph - 0.00 in   Overcast
8:28 AM 26.6 °F - 23.0 °F 86% 30.13 in 1.5 mi Calm Calm - 0.00 in   Overcast
8:33 AM 26.6 °F 22.6 °F 24.8 °F 93% 30.13 in 0.8 mi Variable 3.5 mph - 0.00 in   Mist
8:41 AM 26.6 °F 20.0 °F 24.8 °F 93% 30.13 in 0.5 mi NNW 5.8 mph - 0.00 in Fog , Snow Light Snow
8:53 AM 27.0 °F 23.0 °F 23.0 °F 85% 30.25 in 0.5 mi Variable 3.5 mph - 0.00 in Fog , Snow Light Snow
9:05 AM 26.6 °F - 24.8 °F 93% 30.14 in 1.2 mi Calm Calm - 0.00 in   Overcast
9:18 AM 28.4 °F 24.6 °F 24.8 °F 86% 30.14 in 0.5 mi Variable 3.5 mph - 0.00 in Fog , Snow Light Snow
9:26 AM 28.4 °F 24.6 °F 24.8 °F 86% 30.14 in 1.8 mi Variable 3.5 mph - 0.00 in Snow Light Snow
9:33 AM 28.4 °F - 24.8 °F 86% 30.14 in 1.5 mi Calm Calm - 0.00 in Snow Light Snow
9:37 AM 28.4 °F 24.6 °F 24.8 °F 86% 30.15 in 0.8 mi Variable 3.5 mph - 0.00 in Snow Light Snow
9:53 AM 28.0 °F 22.8 °F 24.1 °F 85% 30.25 in 0.5 mi Variable 4.6 mph - 0.00 in Fog , Snow Light Snow
10:03 AM 28.4 °F 24.6 °F 24.8 °F 86% 30.16 in 0.2 mi Variable 3.5 mph - 0.01 in Fog , Snow Snow
10:16 AM 28.4 °F 23.3 °F 24.8 °F 86% 30.16 in 0.2 mi Variable 4.6 mph - 0.02 in Fog , Snow Light Snow
10:41 AM 28.4 °F 23.3 °F 24.8 °F 86% 30.17 in 0.5 mi NNW 4.6 mph - 0.02 in Snow Snow
10:44 AM 28.4 °F 24.6 °F 24.8 °F 86% 30.17 in 0.2 mi NNW 3.5 mph - 0.02 in Snow Heavy Snow
10:53 AM 28.0 °F 22.8 °F 24.1 °F 85% 30.27 in 0.8 mi Variable 4.6 mph - 0.02 in Snow Light Snow
11:11 AM 28.4 °F 24.6 °F 24.8 °F 86% 30.18 in 0.5 mi Variable 3.5 mph - 0.00 in Fog , Snow Light Snow
11:44 AM 28.4 °F - 24.8 °F 86% 30.19 in 1.0 mi Calm Calm - 0.01 in Snow Light Snow
11:47 AM 28.4 °F 24.6 °F 24.8 °F 86% 30.19 in 0.8 mi Variable 3.5 mph - 0.01 in Snow Light Snow
11:53 AM 28.0 °F - 25.0 °F 88% 30.30 in 0.5 mi Calm Calm - 0.01 in Fog , Snow Snow
12:04 PM 28.4 °F - 24.8 °F 86% 30.19 in 0.2 mi Calm Calm - 0.03 in Fog , Snow Snow
12:53 PM 28.0 °F - 25.0 °F 88% 30.30 in 0.2 mi Calm Calm - 0.05 in Fog Light Freezing Fog
1:15 PM 28.4 °F 24.6 °F 24.8 °F 86% 30.20 in 0.5 mi Variable 3.5 mph - N/A Fog Light Freezing Fog
1:23 PM 28.4 °F 23.3 °F 24.8 °F 86% 30.21 in 0.2 mi NNW 4.6 mph - N/A Fog Light Freezing Fog
1:38 PM 28.4 °F 24.6 °F 24.8 °F 86% 30.21 in 0.8 mi North 3.5 mph - N/A   Overcast
1:49 PM 28.4 °F - 24.8 °F 86% 30.21 in 0.2 mi Calm Calm - 0.00 in Fog , Snow Light Snow
1:53 PM 28.0 °F - 25.0 °F 88% 30.32 in 0.2 mi Calm Calm - 0.00 in Fog , Snow Light Snow
2:48 PM 28.4 °F 24.6 °F 24.8 °F 86% 30.23 in 0.5 mi Variable 3.5 mph - 0.03 in Fog , Snow Light Snow
2:53 PM 28.0 °F - 25.0 °F 88% 30.33 in 1.5 mi Calm Calm - 0.03 in Snow Light Snow
3:08 PM 28.4 °F - 24.8 °F 86% 30.23 in 3.0 mi Calm Calm - 0.00 in Snow Light Snow
3:32 PM 28.4 °F 23.3 °F 24.8 °F 86% 30.24 in 2.0 mi Variable 4.6 mph - 0.00 in Snow Light Snow
3:43 PM 26.6 °F 22.6 °F 24.8 °F 93% 30.24 in 1.2 mi Variable 3.5 mph - 0.00 in Snow Light Snow
3:51 PM 26.6 °F - 24.8 °F 93% 30.25 in 0.5 mi Calm Calm - 0.00 in Fog , Snow Light Snow
3:53 PM 27.0 °F - 24.1 °F 89% 30.35 in 0.5 mi Calm Calm - 0.00 in Fog , Snow Light Snow
4:00 PM 26.6 °F - 24.8 °F 93% 30.25 in 0.2 mi Calm Calm - 0.00 in Fog , Snow Light Snow
4:53 PM 28.0 °F - 24.1 °F 85% 30.37 in 0.2 mi Calm Calm - 0.00 in Fog , Snow Light Snow
5:40 PM 26.6 °F 22.6 °F 23.0 °F 86% 30.28 in 1.0 mi Variable 3.5 mph - 0.00 in   Overcast
5:42 PM 26.6 °F - 23.0 °F 86% 30.27 in 2.0 mi Calm Calm - 0.00 in   Overcast
5:53 PM 26.1 °F 21.9 °F 23.0 °F 88% 30.39 in 2.5 mi Variable 3.5 mph - 0.00 in   Overcast
6:01 PM 26.6 °F 22.6 °F 23.0 °F 86% 30.27 in 1.2 mi Variable 3.5 mph - N/A   Overcast
6:09 PM 26.6 °F - 23.0 °F 86% 30.27 in 0.5 mi Calm Calm - N/A Fog Light Freezing Fog
6:23 PM 26.6 °F - 24.8 °F 93% 30.28 in 0.2 mi Calm Calm - N/A Fog Light Freezing Fog
6:53 PM 27.0 °F 23.0 °F 24.1 °F 89% 30.40 in 0.2 mi WNW 3.5 mph - N/A Fog Light Freezing Fog
7:23 PM 26.6 °F - 23.0 °F 86% 30.29 in 0.5 mi Calm Calm - N/A Fog Light Freezing Fog
7:53 PM 27.0 °F 23.0 °F 23.0 °F 85% 30.42 in 0.5 mi Variable 3.5 mph - 0.00 in Fog Light Freezing Fog
8:11 PM 26.6 °F - 23.0 °F 86% 30.30 in 2.0 mi Calm Calm - 0.00 in Snow Light Snow
8:26 PM 26.6 °F - 23.0 °F 86% 30.30 in 5.0 mi Calm Calm - 0.00 in Snow Light Snow
8:43 PM 26.6 °F - 23.0 °F 86% 30.30 in 1.8 mi Calm Calm - 0.00 in   Overcast
8:53 PM 27.0 °F - 23.0 °F 85% 30.42 in 2.0 mi Calm Calm - 0.00 in   Overcast
9:11 PM 26.6 °F - 21.2 °F 80% 30.30 in 4.0 mi Calm Calm - N/A   Overcast
9:40 PM 26.6 °F - 21.2 °F 80% 30.31 in 6.0 mi Calm Calm - N/A   Overcast
9:53 PM 26.1 °F 21.9 °F 21.9 °F 84% 30.42 in 7.0 mi South 3.5 mph - N/A   Overcast
10:46 PM 24.8 °F 19.1 °F 21.2 °F 86% 30.28 in 1.8 mi South 4.6 mph - N/A   Overcast
10:53 PM 25.0 °F 19.3 °F 21.9 °F 88% 30.40 in 1.8 mi South 4.6 mph - N/A   Overcast
11:53 PM 24.1 °F 19.7 °F 21.0 °F 88% 30.42 in 9.0 mi Variable 3.5 mph - N/A   Scattered Clouds